Aeroporto :
LOGIN :

Iscrizione | Disclaimer

   EN    FR    IT 

 










Sommario :    VFR   VFR Marginale   IFR   IFR Intensivo   IFR Molto Intensivo
Visibilità : 
Base nubi : 
>= 8 km
>= 3000ft
5 / 8 km
1000 / 3000 ft
1500m / 5 km
500 / 1000 ft
800 / 1500m
200 / 500 ft
< 800m
< 200 ft
Simboli :   Temporali  Nebbia  Neve Forte  Precipitazioni Forti  Vento > 20 kt
SIGMETs :   Varie  Temporali  Ghiacco  Turbolenza  Onda orograficha  Ceneri Vulcaniche






- Altitudine del aeroporto : 13 ft
- Codice IATA : LYX


EGMD - Lydd

ULTIMO METAR :
  • 240750Z 27007KT 9999 FEW025 16/15 Q1017

METARs OBSOLETI :
  • 240720Z 26007KT 9999 FEW021 15/14 Q1017
  • 240650Z AUTO 27006KT 9999 FEW020/// SCT026/// 15/14 Q1017
  • 240620Z AUTO 27006KT 230V320 9999 SCT033/// 14/14 Q1017
  • 240550Z AUTO 26007KT 9999 NCD 14/13 Q1017
  • 240520Z AUTO 26006KT 9999 SCT037/// 14/13 Q1017

TAF TAF EGMD
Valido dal 24 a 06 ore il 24 a 15 ore UTC


240457Z 2406/2415 25010KT 9999 FEW035
PROB30
TEMPO 2406/2409 3000 BR BKN004
ATIS : +44 1797 322 422



MetMap, La meteo Aeronautica in un colpo d'occhio ! - Copyright ORBIFLY Dicembre 2007 - Disclaimer

ORBIFLY MET'MAP TEAM :

Programmazione e sviluppo : Alexandra Zaïnal
Concezione : Baudouin d'Aumeries
Aiuto per la programmazione : Marc-Olivier Méhu
Supporto tecnico e logistico : Manuel Goepfert
Aiuto per la traduzione : Arnaldo La Scala

Contatto : metmap@orbifly.com




FONTI E CREDITI :

   NOAA